TimeEST,TemperatureF,Dew PointF,Humidity,Sea Level PressureIn,VisibilityMPH,Wind Direction,Wind SpeedMPH,Gust SpeedMPH,PrecipitationIn,Events,Conditions,WindDirDegrees,DateUTC
12:52 AM,28.9,14.0,54,30.21,10.0,WNW,10.4,-,N/A,,Overcast,300,2013-02-22 05:52:00
1:52 AM,28.9,15.1,56,30.21,10.0,NW,5.8,-,N/A,,Clear,320,2013-02-22 06:52:00
2:52 AM,28.9,15.1,56,30.22,10.0,NW,12.7,19.6,N/A,,Overcast,320,2013-02-22 07:52:00
3:52 AM,28.9,16.0,58,30.24,10.0,NNW,9.2,-,N/A,,Overcast,340,2013-02-22 08:52:00
4:52 AM,28.9,17.1,61,30.26,10.0,Variable,6.9,-,N/A,,Overcast,0,2013-02-22 09:52:00
5:52 AM,28.9,17.1,61,30.30,10.0,NW,6.9,-,N/A,,Overcast,310,2013-02-22 10:52:00
7:52 AM,30.0,17.1,59,30.35,10.0,NNW,10.4,-,N/A,,Overcast,340,2013-02-22 12:52:00
8:00 AM,30.0,17.1,59,30.36,10.0,North,9.2,-,N/A,,Overcast,350,2013-02-22 13:00:00
8:52 AM,30.9,18.0,59,30.36,10.0,NNW,5.8,-,N/A,,Overcast,340,2013-02-22 13:52:00
8:59 AM,32.0,18.0,56,30.35,10.0,North,5.8,-,N/A,,Overcast,350,2013-02-22 13:59:00
9:52 AM,34.0,19.0,54,30.35,10.0,North,6.9,-,N/A,,Overcast,10,2013-02-22 14:52:00
10:52 AM,37.0,21.9,54,30.36,10.0,NE,8.1,-,N/A,,Overcast,40,2013-02-22 15:52:00
11:52 AM,37.9,21.9,53,30.35,10.0,NE,6.9,-,N/A,,Overcast,50,2013-02-22 16:52:00
12:52 PM,37.9,21.9,53,30.34,10.0,North,10.4,-,N/A,,Overcast,10,2013-02-22 17:52:00
1:52 PM,37.0,21.9,54,30.35,10.0,ENE,5.8,-,N/A,,Overcast,60,2013-02-22 18:52:00
2:52 PM,37.9,21.9,53,30.35,10.0,North,9.2,-,N/A,,Overcast,10,2013-02-22 19:52:00
3:52 PM,37.0,19.9,50,30.35,10.0,NNE,6.9,-,N/A,,Mostly Cloudy,30,2013-02-22 20:52:00
4:52 PM,37.0,21.0,52,30.33,10.0,Variable,6.9,-,N/A,,Mostly Cloudy,0,2013-02-22 21:52:00
5:52 PM,34.0,21.9,61,30.35,10.0,Calm,Calm,-,N/A,,Clear,0,2013-02-22 22:52:00
6:52 PM,30.9,24.1,76,30.36,10.0,West,3.5,-,N/A,,Mostly Cloudy,260,2013-02-22 23:52:00
7:52 PM,33.1,24.1,70,30.35,10.0,Calm,Calm,-,N/A,,Overcast,0,2013-02-23 00:52:00
8:52 PM,33.1,24.1,70,30.35,10.0,Calm,Calm,-,N/A,,Overcast,0,2013-02-23 01:52:00
9:52 PM,32.0,25.0,75,30.35,10.0,Calm,Calm,-,N/A,,Overcast,0,2013-02-23 02:52:00
10:42 PM,32.0,25.0,75,30.36,10.0,Calm,Calm,-,N/A,,Overcast,0,2013-02-23 03:42:00
10:52 PM,33.1,25.0,72,30.35,10.0,Calm,Calm,-,N/A,,Overcast,0,2013-02-23 03:52:00
11:52 PM,33.1,25.0,72,30.34,10.0,Calm,Calm,-,N/A,,Overcast,0,2013-02-23 04:52:00